Location: Corralito
(10.2667°N, 66.9500°W)
Time: 22:17:30
(UTC+00:00)

CZ-4B DEB - Visible Passes

Search period start: 04 December 2023 00:00
Search period end: 14 December 2023 00:00
Orbit: 838 x 858 km, 99.0° (Epoch: 03 December)

Date Brightness Start Highest point End Pass type
(mag) Time Alt. Az. Time Alt. Az. Time Alt. Az.
04 Dec 4.8 00:10:30 10° S 00:15:52 54° WSW 00:19:34 20° NNW visible
04 Dec 4.3 23:57:51 10° S 00:03:21 76° WSW 00:07:01 22° NNW visible
05 Dec 4.0 23:45:21 10° SSE 23:50:51 78° ENE 23:54:29 22° N visible
06 Dec 4.2 23:32:58 10° SSE 23:38:21 56° ENE 23:41:57 21° N visible
07 Dec 4.5 23:20:45 10° SE 23:25:52 40° ENE 23:29:26 19° NNE visible
08 Dec 6.9 01:03:26 10° SW 01:06:18 14° W 01:09:11 10° WNW visible
08 Dec 4.9 23:08:43 10° SE 23:13:24 29° ENE 23:16:57 15° NNE visible
09 Dec 6.5 00:49:49 10° SSW 00:53:47 20° W 00:57:46 10° NW visible
09 Dec 5.3 22:56:54 10° ESE 23:00:56 21° ENE 23:04:28 12° NNE visible
10 Dec 6.0 00:36:35 10° SSW 00:41:15 28° WSW 00:45:56 10° NW visible
10 Dec 5.6 22:45:27 10° ESE 22:48:29 15° ENE 22:51:32 10° NE visible
11 Dec 5.4 00:23:37 10° S 00:28:43 39° WSW 00:33:51 10° NNW visible
11 Dec 5.9 22:35:17 10° E 22:36:03 10° ENE 22:36:49 10° ENE visible
12 Dec 4.8 00:10:49 10° S 00:16:12 55° WSW 00:21:36 10° NNW visible
12 Dec 4.3 23:58:09 10° S 00:03:41 77° WSW 00:09:12 10° NNW visible
13 Dec 4.0 23:45:39 10° SSE 23:51:10 78° ENE 23:56:41 10° N visible
